Location: Makanda
(37.6176°N, 89.2090°W)
Time: 22:31:09
(UTC+00:00)

Meteor 1-10 Rocket - Pass Details

Date: 23 September 2019
Orbit: 835 x 910 km, 81.3° (Epoch: 16 October)

Event Time Altitude Azimuth Distance (km) Brightness Sun altitude
Exits shadow 09:15:10 66° 348° (NNW) 989 4.4 -29.6°
Drops below altitude 10° 09:20:18 10° 7° (N) 2,604 7.1 -28.7°
Sets 09:22:47 0° 8° (N) 3,547 7.9 -28.2°
